Satellite-Ground Cal/Val Region Overpasses Predictions

Prediction of Satellite NPP Overpassing Cal/Val Region: PacNW

Region Location: (Latitude: 10.00, Longitude: 139.50) to (Latitude: 22.70, Longitude: 165.60).

Table of predicted overpasses for the next 14.0 days since TLE Epoch: 2/14/2014
Interval Starting Time Starting Location Ending Time Ending Location
1 02/14/2014 15:20:54 ( 22.64, 155.50) 02/14/2014 15:24:29 ( 10.02, 152.49)
2 02/15/2014 02:29:59 ( 10.05, 163.00) 02/15/2014 02:33:34 ( 22.67, 159.98)
3 02/15/2014 15:01:52 ( 22.68, 160.27) 02/15/2014 15:05:28 ( 10.00, 157.24)
4 02/16/2014 02:13:35 ( 19.24, 165.59) 02/16/2014 02:14:34 ( 22.70, 164.73)
5 02/16/2014 03:52:28 ( 10.02, 142.39) 02/16/2014 03:55:54 ( 22.11, 139.51)
6 02/16/2014 14:42:52 ( 22.66, 165.02) 02/16/2014 14:46:27 ( 10.04, 162.01)
7 02/16/2014 16:24:22 ( 22.65, 139.65) 02/16/2014 16:24:32 ( 22.07, 139.50)
8 02/17/2014 03:33:27 ( 10.04, 147.14) 02/17/2014 03:37:02 ( 22.66, 144.13)
9 02/17/2014 16:05:20 ( 22.69, 144.42) 02/17/2014 16:08:56 ( 10.01, 141.39)
10 02/18/2014 03:14:26 ( 10.01, 151.91) 02/18/2014 03:18:02 ( 22.69, 148.88)
11 02/18/2014 15:46:20 ( 22.66, 149.17) 02/18/2014 15:49:55 ( 10.04, 146.16)
12 02/19/2014 02:55:26 ( 10.04, 156.66) 02/19/2014 02:59:01 ( 22.66, 153.65)
13 02/19/2014 15:27:18 ( 22.69, 153.94) 02/19/2014 15:30:54 ( 10.02, 150.91)
14 02/20/2014 02:36:24 ( 10.01, 161.43) 02/20/2014 02:40:00 ( 22.69, 158.40)
15 02/20/2014 15:08:18 ( 22.67, 158.69) 02/20/2014 15:11:53 ( 10.05, 155.67)
16 02/21/2014 02:18:07 ( 12.56, 165.60) 02/21/2014 02:20:59 ( 22.66, 163.17)
17 02/21/2014 03:58:54 ( 10.04, 140.81) 02/21/2014 04:00:29 ( 15.62, 139.51)
18 02/21/2014 14:49:16 ( 22.70, 163.46) 02/21/2014 14:52:52 ( 10.02, 160.43)
19 02/22/2014 03:39:52 ( 10.01, 145.57) 02/22/2014 03:43:28 ( 22.69, 142.54)
20 02/22/2014 14:33:21 ( 11.81, 165.60) 02/22/2014 14:33:51 ( 10.05, 165.19)
21 02/22/2014 16:11:46 ( 22.67, 142.83) 02/22/2014 16:15:21 ( 10.05, 139.82)
22 02/23/2014 03:20:52 ( 10.04, 150.33) 02/23/2014 03:24:27 ( 22.66, 147.31)
23 02/23/2014 15:52:44 ( 22.69, 147.60) 02/23/2014 15:56:20 ( 10.02, 144.57)
24 02/24/2014 03:01:50 ( 10.01, 155.09) 02/24/2014 03:05:26 ( 22.69, 152.06)
25 02/24/2014 15:33:44 ( 22.66, 152.35) 02/24/2014 15:37:19 ( 10.05, 149.34)
26 02/25/2014 02:42:50 ( 10.04, 159.84) 02/25/2014 02:46:25 ( 22.67, 156.83)
27 02/25/2014 15:14:42 ( 22.69, 157.12) 02/25/2014 15:18:18 ( 10.01, 154.09)
28 02/26/2014 02:23:48 ( 10.02, 164.61) 02/26/2014 02:27:24 ( 22.70, 161.58)
29 02/26/2014 14:55:42 ( 22.65, 161.87) 02/26/2014 14:59:17 ( 10.04, 158.85)
30 02/27/2014 03:46:18 ( 10.06, 143.99) 02/27/2014 03:49:53 ( 22.68, 140.97)
31 02/27/2014 14:37:53 ( 18.46, 165.59) 02/27/2014 14:40:17 ( 10.00, 163.61)


NCC Satellite Cal/Val Overpasses Prediction Service
